Stündliche Wetter Czysta

Heute, 31 Oktober, Samstag

Zeit Temperatur Niederschläge Wind Luftdruck Luftfeuchtigkeit
00:00 +8°C° 0 mm 1 m/S 762 mmHg 91%
01:00 +8°C° 0 mm 1 m/S 763 mmHg 91%
02:00 +8°C° 0 mm 1 m/S 763 mmHg 91%
03:00 +8°C° 0 mm 1 m/S 763 mmHg 91%
04:00 +7°C° 0 mm 1 m/S 763 mmHg 90%
05:00 +6°C° 0 mm 2 m/S 764 mmHg 90%
06:00 +6°C° 0 mm 2 m/S 764 mmHg 90%
07:00 +6°C° 0 mm 2 m/S 764 mmHg 89%
08:00 +7°C° 0 mm 2 m/S 764 mmHg 84%
09:00 +9°C° 0 mm 2 m/S 765 mmHg 79%
10:00 +10°C° 0 mm 3 m/S 765 mmHg 74%
11:00 +11°C° 0 mm 3 m/S 765 mmHg 72%
12:00 +13°C° 0 mm 2 m/S 765 mmHg 69%
13:00 +13°C° 0 mm 2 m/S 765 mmHg 66%
14:00 +12°C° 0 mm 3 m/S 765 mmHg 70%
15:00 +11°C° 0 mm 3 m/S 765 mmHg 74%
16:00 +10°C° 0 mm 3 m/S 765 mmHg 78%
17:00 +10°C° 0 mm 4 m/S 765 mmHg 80%
18:00 +8°C° 0 mm 4 m/S 765 mmHg 83%
19:00 +8°C° 0 mm 5 m/S 765 mmHg 85%
20:00 +7°C° 0 mm 5 m/S 765 mmHg 86%
21:00 +7°C° 0 mm 5 m/S 765 mmHg 86%
22:00 +7°C° 0 mm 5 m/S 764 mmHg 87%
23:00 +7°C° 0 mm 6 m/S 764 mmHg 87%

Morgen, 1 November, Sonntag

Zeit Temperatur Niederschläge Wind Luftdruck Luftfeuchtigkeit
00:00 +7°C° 0 mm 6 m/S 764 mmHg 88%
01:00 +7°C° 0 mm 6 m/S 764 mmHg 88%
02:00 +7°C° 0 mm 6 m/S 764 mmHg 88%
03:00 +6°C° 0 mm 7 m/S 763 mmHg 88%
04:00 +6°C° 0 mm 7 m/S 763 mmHg 87%
05:00 +6°C° 0 mm 7 m/S 763 mmHg 85%
06:00 +6°C° 0 mm 7 m/S 762 mmHg 82%
07:00 +8°C° 0 mm 7 m/S 762 mmHg 79%
08:00 +7°C° 0 mm 8 m/S 762 mmHg 76%
09:00 +9°C° 0 mm 8 m/S 761 mmHg 72%
10:00 +10°C° 0 mm 8 m/S 761 mmHg 69%
11:00 +10°C° 0 mm 8 m/S 760 mmHg 69%
12:00 +11°C° 0 mm 7 m/S 760 mmHg 70%
13:00 +11°C° 0 mm 7 m/S 759 mmHg 70%
14:00 +11°C° 0.1 mm 7 m/S 759 mmHg 74%
15:00 +10°C° 0.1 mm 7 m/S 758 mmHg 77%
16:00 +10°C° 0.1 mm 7 m/S 758 mmHg 80%
17:00 +10°C° 1.5 mm 7 m/S 757 mmHg 84%
18:00 +10°C° 1.5 mm 7 m/S 757 mmHg 87%
19:00 +10°C° 1.5 mm 7 m/S 756 mmHg 91%
20:00 +11°C° 0.1 mm 7 m/S 756 mmHg 91%
21:00 +11°C° 0.1 mm 7 m/S 756 mmHg 90%
22:00 +11°C° 0.1 mm 6 m/S 756 mmHg 90%
23:00 +11°C° 0.1 mm 7 m/S 755 mmHg 90%

übermorgen, 2 November, Montag

Zeit Temperatur Niederschläge Wind Luftdruck Luftfeuchtigkeit
00:00 +11°C° 0.1 mm 7 m/S 755 mmHg 89%
01:00 +11°C° 0.1 mm 7 m/S 755 mmHg 88%
02:00 +11°C° 0.3 mm 7 m/S 755 mmHg 88%
03:00 +12°C° 0.3 mm 7 m/S 755 mmHg 89%
04:00 +12°C° 0.3 mm 7 m/S 755 mmHg 89%
05:00 +11°C° 0 mm 6 m/S 755 mmHg 89%
06:00 +10°C° 0 mm 5 m/S 756 mmHg 89%
07:00 +10°C° 0 mm 4 m/S 756 mmHg 89%
08:00 +11°C° 0 mm 4 m/S 756 mmHg 87%
09:00 +11°C° 0 mm 4 m/S 756 mmHg 85%
10:00 +12°C° 0 mm 4 m/S 756 mmHg 83%
11:00 +12°C° 0 mm 5 m/S 756 mmHg 85%
12:00 +13°C° 0 mm 5 m/S 756 mmHg 86%
13:00 +13°C° 0 mm 6 m/S 756 mmHg 87%
14:00 +13°C° 0 mm 6 m/S 755 mmHg 89%
15:00 +14°C° 0 mm 6 m/S 755 mmHg 91%
16:00 +14°C° 0 mm 6 m/S 755 mmHg 93%
17:00 +15°C° 0.1 mm 6 m/S 755 mmHg 92%
18:00 +15°C° 0.1 mm 7 m/S 755 mmHg 92%
19:00 +15°C° 0.1 mm 7 m/S 755 mmHg 91%
20:00 +15°C° 0 mm 7 m/S 755 mmHg 89%
21:00 +15°C° 0 mm 7 m/S 755 mmHg 87%
22:00 +15°C° 0 mm 7 m/S 755 mmHg 84%
23:00 +15°C° 0 mm 7 m/S 755 mmHg 84%

3 November, Dienstag

Zeit Temperatur Niederschläge Wind Luftdruck Luftfeuchtigkeit
00:00 +15°C° 0 mm 7 m/S 755 mmHg 84%
01:00 +15°C° 0 mm 7 m/S 756 mmHg 84%
02:00 +15°C° 0.1 mm 7 m/S 756 mmHg 83%
03:00 +14°C° 0.1 mm 7 m/S 757 mmHg 81%
04:00 +13°C° 0.1 mm 6 m/S 757 mmHg 79%
05:00 +11°C° 0 mm 7 m/S 758 mmHg 79%
06:00 +11°C° 0 mm 7 m/S 758 mmHg 79%
07:00 +10°C° 0 mm 7 m/S 759 mmHg 78%
08:00 +10°C° 0 mm 8 m/S 760 mmHg 75%
09:00 +10°C° 0 mm 9 m/S 760 mmHg 72%
10:00 +10°C° 0 mm 9 m/S 761 mmHg 68%
11:00 +9°C° 0 mm 10 m/S 761 mmHg 65%
12:00 +11°C° 0 mm 10 m/S 762 mmHg 62%
13:00 +11°C° 0 mm 10 m/S 762 mmHg 59%
14:00 +10°C° 0 mm 9 m/S 762 mmHg 61%
15:00 +9°C° 0 mm 8 m/S 763 mmHg 63%
16:00 +9°C° 0 mm 8 m/S 763 mmHg 66%
17:00 +8°C° 0 mm 7 m/S 763 mmHg 68%
18:00 +8°C° 0 mm 7 m/S 764 mmHg 70%
19:00 +6°C° 0 mm 7 m/S 764 mmHg 71%
20:00 +6°C° 0 mm 7 m/S 764 mmHg 72%
21:00 +7°C° 0 mm 6 m/S 765 mmHg 73%
22:00 +7°C° 0 mm 6 m/S 765 mmHg 74%
23:00 +7°C° 0 mm 6 m/S 765 mmHg 75%

4 November, Mittwoch

Zeit Temperatur Niederschläge Wind Luftdruck Luftfeuchtigkeit
00:00 +5°C° 0 mm 6 m/S 765 mmHg 75%
01:00 +6°C° 0 mm 5 m/S 765 mmHg 76%
02:00 +6°C° 0 mm 5 m/S 765 mmHg 77%
03:00 +6°C° 0 mm 5 m/S 765 mmHg 77%
04:00 +6°C° 0 mm 5 m/S 766 mmHg 77%
05:00 +6°C° 0 mm 5 m/S 766 mmHg 77%
06:00 +6°C° 0 mm 5 m/S 766 mmHg 77%
07:00 +6°C° 0 mm 5 m/S 767 mmHg 77%
08:00 +7°C° 0 mm 5 m/S 767 mmHg 74%
09:00 +7°C° 0 mm 5 m/S 767 mmHg 71%
10:00 +8°C° 0 mm 5 m/S 767 mmHg 68%
11:00 +9°C° 0 mm 5 m/S 768 mmHg 67%
12:00 +9°C° 0 mm 5 m/S 768 mmHg 66%
13:00 +10°C° 0 mm 5 m/S 768 mmHg 65%
14:00 +9°C° 0.3 mm 5 m/S 768 mmHg 68%
15:00 +8°C° 0.3 mm 5 m/S 769 mmHg 72%
16:00 +8°C° 0.3 mm 5 m/S 769 mmHg 76%
17:00 +7°C° 0 mm 5 m/S 770 mmHg 79%
18:00 +6°C° 0 mm 4 m/S 770 mmHg 83%
19:00 +6°C° 0 mm 4 m/S 771 mmHg 86%
20:00 +6°C° 0 mm 4 m/S 771 mmHg 87%
21:00 +5°C° 0 mm 4 m/S 771 mmHg 89%
22:00 +5°C° 0 mm 4 m/S 772 mmHg 90%
23:00 +5°C° 0 mm 3 m/S 772 mmHg 91%

5 November, Donnerstag

Zeit Temperatur Niederschläge Wind Luftdruck Luftfeuchtigkeit
00:00 +5°C° 0 mm 3 m/S 773 mmHg 92%
01:00 +5°C° 0 mm 3 m/S 773 mmHg 92%
02:00 +5°C° 0 mm 3 m/S 773 mmHg 92%
03:00 +5°C° 0 mm 3 m/S 774 mmHg 92%
04:00 +5°C° 0 mm 3 m/S 774 mmHg 93%
05:00 +4°C° 0 mm 3 m/S 774 mmHg 93%
06:00 +4°C° 0 mm 3 m/S 775 mmHg 93%
07:00 +4°C° 0 mm 3 m/S 775 mmHg 94%
08:00 +5°C° 0 mm 3 m/S 775 mmHg 91%
09:00 +7°C° 0 mm 3 m/S 776 mmHg 88%
10:00 +8°C° 0 mm 3 m/S 776 mmHg 85%
11:00 +9°C° 0 mm 3 m/S 776 mmHg 82%
12:00 +10°C° 0 mm 3 m/S 776 mmHg 79%
13:00 +10°C° 0 mm 3 m/S 776 mmHg 76%
14:00 +10°C° 0 mm 3 m/S 776 mmHg 79%
15:00 +9°C° 0 mm 3 m/S 776 mmHg 82%
16:00 +7°C° 0 mm 4 m/S 776 mmHg 86%
17:00 +7°C° 0 mm 4 m/S 776 mmHg 87%
18:00 +6°C° 0 mm 4 m/S 776 mmHg 89%
19:00 +6°C° 0 mm 4 m/S 777 mmHg 91%
20:00 +5°C° 0 mm 4 m/S 777 mmHg 92%
21:00 +5°C° 0 mm 4 m/S 777 mmHg 93%
22:00 +5°C° 0 mm 4 m/S 777 mmHg 94%
23:00 +5°C° 0 mm 5 m/S 777 mmHg 94%
Mehr zeigen

Wir brauchen deine Erlaubnis

Meteoprog und unser Service Anbieter werden persönliche Daten aufbewahren, so wie Cookies, Geräte Bezeichnung oder ähnliche Technologien von deinem Gerät und Prozess, so wie Persönliche Daten Inhalte und Werbungen, genauso wie social Media und den Verkehr zu analysieren.

  • Aufbewahrung und/oder Zugang zu deiner Geräte Informationen.

    Cookies, Geräte Bezeichnung oder andere Informationen, können aufbewahrt oder Zugang zu deinem Gerät erhalten, für den Grund, der oben angegeben wird.

  • Personalisierte Werbung und Inhalte, Messungen, Einblick in das Publikum und Produkt Entwicklung.

    Werbungen und Inhalte können personalisiert werden, basierend auf ein Profil. Mehr Daten können besser personalisierte Werbungen und Inhalte hinzufügen. Werbung und Inhalte können gezeigt und gemessen werden. Einblicke über das Publikum, welche die Werbung gesehen haben und den Inhalt, können abgeleitet werden. So wie Daten können genutzt werden, um es zu verbessern oder die Benutzer Erfahrung zu verbessern das System und die Software.

Wenn du “Ich stimme zu” klickst, erlaubst du uns, die Cookies zu benutzen die Geräte Bezeichnung, den Web oder ähnliche Technologien zu benutzen. Deine Settings, können in deinem Gerät bei deinem Browser geändert werden.

Für den bestimmten Zweck, berechtigten Interessen beruhen darauf, mehr als auf den Inhalt. Du kannst mehr darüber in unseren Privaten und Cookie Politik lesen.